Theta_e
282 282 281 281 282 284 284 284 285 287 287 288 288 289 290 292 293 296 298 299 296 296 294 293 292 292 291 291 290 290 290 290
281 283 282 281 281 282 283 284 284 285 286 287 287 287 288 288 289 290 294 295 295 295 294 292 292 291 290 290 290 289 289 290
281 282 282 281 282 282 282 283 284 284 285 285 286 286 286 286 286 287 289 292 293 293 293 293 291 291 290 289 289 289 288 288
280 281 282 281 281 282 282 283 283 283 283 283 283 284 283 283 284 285 285 286 289 291 291 291 290 290 290 290 289 289 289 289
278 279 280 281 280 280 281 282 282 282 281 281 281 281 282 282 282 282 283 285 286 288 288 287 287 288 288 289 288 288 288 289
279 279 279 279 280 278 278 280 281 280 277 275 277 277 277 279 280 281 281 282 283 286 286 286 287 288 287 288 288 288 287 287
277 278 279 278 278 277 274 275 278 273 270 271 273 273 274 275 278 280 281 280 279 282 285 286 287 290 290 289 287 287 287 286
275 275 277 276 278 276 276 272 269 268 268 269 267 271 272 272 273 276 279 282 282 284 283 285 287 290 291 289 287 287 287 286
275 275 275 275 274 274 270 269 266 268 269 268 266 269 271 271 271 272 277 280 284 283 285 284 285 289 291 289 287 286 286 286
275 274 269 270 272 270 270 265 263 270 272 270 267 269 268 271 272 273 276 278 282 285 284 285 285 288 290 289 286 285 285 285
274 266 264 271 266 269 272 268 269 273 273 271 269 270 268 271 271 273 275 278 281 284 286 285 285 287 290 290 286 285 284 284
267 268 270 266 268 270 271 271 275 274 274 271 271 272 272 273 274 274 275 277 277 282 285 285 285 285 289 291 286 286 284 283
270 271 271 264 271 272 272 276 273 274 275 274 274 275 276 275 275 275 276 277 279 281 284 285 285 285 288 291 289 288 285 284
272 274 275 270 273 274 275 273 275 274 274 274 274 275 275 275 275 276 277 277 278 280 282 283 283 284 287 289 291 289 285 285
269 270 271 274 275 274 275 274 273 273 273 274 273 273 273 275 276 276 275 276 278 280 282 283 283 283 284 286 288 288 286 285
267 267 268 270 270 270 272 270 271 271 273 273 273 272 273 274 274 275 277 278 277 278 281 283 283 283 285 285 286 287 286 284
264 264 265 266 266 266 267 267 268 271 272 272 272 272 272 272 272 276 278 280 281 282 282 283 286 288 287 287 288 289 287 283
261 262 262 262 262 262 262 264 264 267 270 270 269 270 270 269 270 269 274 278 279 281 282 284 286 288 288 287 288 289 287 283
260 260 259 260 260 261 261 261 263 264 266 268 269 269 268 268 269 269 269 269 271 277 280 284 287 288 288 288 288 285 285 283
258 258 258 258 259 258 259 260 261 262 263 265 265 266 266 267 267 268 268 269 270 273 278 281 287 288 289 289 285 285 284 283
Wind_Speed
5 6 4 4 5 6 7 7 8 9 9 8 9 9 9 7 7 4 3 4 6 6 6 6 6 7 5 5 5 5 4 3
5 4 5 4 4 5 6 8 8 7 7 7 8 8 7 8 7 6 6 4 5 5 6 7 7 6 6 5 6 7 5 5
6 5 4 5 5 5 5 5 5 6 6 6 7 7 8 7 8 8 6 5 4 5 6 6 7 8 8 7 7 9 7 7
6 6 5 5 5 5 4 4 4 5 6 6 6 7 7 8 8 7 7 5 4 4 6 7 7 8 9 10 8 8 8 8
5 6 6 5 5 5 5 4 4 5 4 5 7 7 7 7 7 7 7 5 4 4 5 5 6 6 7 8 9 8 8 8
7 7 6 6 6 5 5 5 3 5 5 5 5 5 6 7 7 7 6 6 4 4 4 4 6 6 9 8 9 8 7 7
10 9 10 7 8 6 7 5 3 3 5 5 5 5 6 5 8 8 7 6 4 4 4 5 5 11 16 11 8 8 9 8
10 10 10 9 8 8 8 2 3 4 4 5 5 5 5 5 5 6 9 8 6 4 4 5 6 12 15 16 8 9 8 8
10 10 9 6 7 6 4 5 4 5 6 5 4 6 6 6 5 5 4 7 9 6 4 5 5 12 15 16 7 7 8 8
10 9 6 8 7 6 5 4 3 7 7 6 5 6 5 6 7 5 5 6 8 8 6 5 5 12 15 14 8 7 8 8
9 5 6 11 4 5 8 5 7 8 9 6 5 5 5 6 6 4 5 7 6 9 6 6 6 10 15 16 6 8 6 6
5 8 10 4 4 8 6 9 13 6 6 5 5 6 6 5 3 5 6 6 7 8 7 6 6 7 15 20 9 8 8 8
6 7 8 4 5 9 8 16 4 6 6 7 6 5 4 5 6 6 6 7 7 8 7 5 5 10 14 19 20 14 9 10
6 10 9 3 6 9 15 4 7 7 9 8 6 5 5 5 6 5 5 6 7 6 6 5 4 5 16 18 20 18 9 6
6 10 13 6 4 7 10 5 7 9 8 6 6 5 5 5 5 5 5 5 7 7 8 6 5 5 5 7 10 16 11 10
8 11 13 10 6 5 7 6 6 6 7 6 5 5 5 6 6 6 8 8 7 8 8 7 6 7 13 11 8 9 11 9
11 11 13 10 10 6 6 6 6 8 6 6 5 5 5 5 6 13 19 21 22 24 19 12 16 16 19 21 21 20 22 8
12 12 12 13 13 6 6 6 7 10 9 5 6 5 5 5 6 9 7 17 20 22 25 26 23 20 19 22 22 22 23 10
13 13 12 13 14 7 7 7 10 10 12 9 7 6 6 6 6 6 8 9 9 12 17 20 21 22 21 21 20 12 18 12
13 13 13 14 14 6 7 9 11 8 8 7 7 7 7 6 6 7 8 9 11 10 12 15 21 20 22 22 11 11 13 12
Wind_Direction
340 344 347 348 341 356 3 359 356 2 4 3 3 6 356 10 1 317 251 207 180 187 191 179 179 178 179 173 171 199 204 183
300 305 312 323 348 352 1 358 1 1 352 358 4 360 4 1 356 354 319 255 199 193 186 192 188 182 168 202 153 204 198 195
276 277 296 313 322 337 346 355 348 340 343 350 357 2 1 357 346 339 332 300 246 197 196 193 199 178 184 194 177 190 191 202
279 275 268 264 285 301 315 321 330 342 347 350 358 360 357 341 334 335 326 316 278 225 204 201 193 195 196 187 185 184 190 192
275 271 274 262 261 272 285 302 321 338 353 349 354 349 341 327 324 324 323 312 284 248 220 196 180 184 189 189 175 183 190 192
267 276 261 264 256 258 267 284 299 320 334 327 330 329 324 333 331 321 321 318 297 261 235 207 183 187 187 194 181 178 189 193
269 264 267 250 250 244 255 247 238 283 292 307 322 329 328 328 331 333 320 320 318 273 239 211 220 209 201 187 183 178 185 187
264 262 260 251 245 235 237 219 222 245 267 287 291 308 316 316 330 332 333 318 305 287 244 238 227 223 206 192 185 181 189 180
263 265 259 244 245 244 205 213 234 264 273 276 271 278 300 317 314 306 311 318 313 288 255 236 230 236 216 192 173 184 181 180
257 255 253 251 245 209 230 215 209 250 254 254 250 268 287 303 309 306 302 311 306 291 261 237 238 223 220 189 179 180 185 177
273 254 253 267 187 201 233 205 233 237 240 225 229 243 265 276 292 277 291 286 291 291 255 239 244 222 215 195 184 180 177 184
269 264 265 257 192 223 217 228 230 211 229 227 223 237 245 270 256 282 292 288 289 286 272 243 223 228 220 206 192 194 178 184
285 290 285 214 205 244 220 239 199 199 220 228 220 226 229 249 274 272 276 282 291 295 282 242 222 219 230 217 203 201 187 189
342 318 311 235 217 246 248 210 231 219 225 222 212 223 223 243 265 276 272 275 284 283 281 267 210 212 229 227 213 204 201 185
328 310 302 323 304 258 287 261 224 231 231 216 212 225 224 241 248 255 263 267 271 276 277 260 228 210 217 220 224 208 188 178
309 299 293 304 290 305 311 311 267 246 245 234 215 211 232 230 241 243 248 247 264 267 274 270 247 215 214 211 208 198 188 159
295 288 293 297 292 284 286 291 279 273 255 239 230 228 230 238 269 253 263 268 267 268 263 266 262 243 223 226 217 199 175 166
286 285 285 288 285 276 263 268 263 261 268 250 232 229 232 230 244 283 278 273 275 271 271 264 251 242 226 226 226 208 170 185
282 283 281 278 277 275 262 259 259 255 257 254 249 238 234 233 239 247 271 286 284 273 272 272 251 239 222 219 218 209 187 186
279 279 277 275 277 248 258 266 268 260 257 248 242 235 236 236 238 240 250 258 270 285 275 265 253 236 225 211 211 211 196 187